THORAD DELTA 1 DEB, 42610

Orbit data source: Space-Track

THORAD DELTA 1 DEB, 42610 is space debris in SSO originally from a launch on Fri, 15 Nov 1974 UTC launched from the Air Force Western Test Range (AFWTR). Debris objects in space refer to the collection of defunct objects orbiting the Earth. Examples of debris include non-operational satellites, rocket bodies, and fragments generated from explosions, collisions, or faulty payload assembly.

Loading next visibility...
Identifier
42610, 1974-089GB
Orbit
SSO
Country
Flag of USUS
Related business
Manufacturer
Unknown
Mission
Spacecraft
Bus & Motor
Unknown
Mass
Unknown
Launch date (UTC)
1974-11-15 (52 years ago)
Launch vehicle
Unknown
Launch site
Air Force Western Test Range (AFWTR)
Object type
Payload
Rocket body
Debris
Shape & HBR
Unknown shape, 0.1 m
Radar Cross Section
Small (<0.1 m²)

Expand to show TLE details & history
Last TLE update: 2 days ago

TLE from 2 days ago
0 THORAD DELTA 1 DEB
1 42610U 74089GB  26142.86848256  .00000000  00000-0  30239-3 0  9993
2 42610 101.3974  10.9080 0078224 175.9474 184.2240 12.40364911566063
Epoch: 2026-05-22T20:50Z
TLE epoch observation values (Epoch: 2026-05-22T20:50:36.893Z)
Latitude
-0.00008°
Longitude
177.76114°
Altitude
1,569.14 km
Speed
7.056 km/s
True Right ascension
00h 43m 37s
True Declination
0° 00' 00"
Sunlit
Object was in daylight at epoch
Visualization orbit readout
Latitude
Unknown
Longitude
Unknown
Altitude
Unknown
Speed
Unknown
Apparent Right ascension
Unknown
Apparent Declination
Unknown
Sunlit
N/A
Visualization observer readout
Local Sidereal Time
13:39:10
Azimuth
Unknown
Elevation
Unknown
Doppler factor
Unknown
Orbital elements
Apogee altitude
1,564.242 km
Perigee altitude
1,440.949 km
Semi-major axis
7,880.733 km
Eccentricity
0.00782
Inclination
101.3974°
RAAN
10.908°
Arg. of periapsis
175.9474°
True anomaly
184.15861°
Mean anomaly
184.224°
Eccentric anomaly
184.19124°
Mean motion
3.10237 °/min
Orbital period
116.04 mins
BSTAR
0.00030239
Loading maneuver chart data...
Computing Atmospheric mass density...

Documentation

Showing up to 5 results
|